Flag for Germany Weather past 2 weeks in Rheine, North Rhine-Westphalia, Germany

Now
55 °F

Partly sunny.


Feels Like: 53 °F
Forecast: 43 / 52 °F
Wind: 10 mph from South

Location: Rheine-Bentlage

Current Time: Oct 21, 2014 at 11:40:54 AM

Latest Report: Oct 21, 2014 at 10:20 AM


Visibility: N/A

Pressure: 29.65 "Hg

Humidity: 82%

Dew point: 50 °F

Location of RheineLocation

Historic Weather in Rheine — Graph

°F

Rheine temperature yesterday

Maximum temperature yesterday: 63 °F (at 2:20 PM)
Minimum temperature yesterday: 55 °F (at 11:20 PM)
Average temperature yesterday: 59 °F

Past Weeks' High & Low Weather Summary

 TemperatureHumidityPressure
High73 °F (Oct 19, 2:20 PM)100% (Oct 7, 10:20 AM)30.09 "Hg (Oct 7, 10:20 AM)
Low45 °F (Oct 11, 7:20 AM)56% (Oct 14, 1:20 PM)29.50 "Hg (Oct 7, 9:20 AM)
Average57 °F86%29.80 "Hg
* Reported Oct 6 10:20 AM — Oct 21 10:20 AM, Rheine, Weather by CustomWeather, © 2014

Note: Actual official high and low records may vary slightly from our data, if they occured in-between our weather recording intervals... More about our weather records

Advertising

Rheine weather history for previous 24 hours

 ConditionsComfort  
Time TempWeatherWind HumidityBarometerVisibility
10:20 AM
Oct 21
55 °FPartly sunny.10 mph82%29.65 "HgN/A
9:20 AM54 °FBroken clouds.8 mph88%29.71 "HgN/A
8:20 AM54 °FPassing clouds.7 mph88%29.74 "Hg6 mi
7:20 AM54 °FPassing clouds.7 mph88%29.74 "HgN/A
6:20 AM54 °FPassing clouds.6 mph88%29.77 "HgN/A
5:20 AM55 °FPassing clouds.8 mph82%29.80 "HgN/A
4:20 AM55 °FCool.7 mph88%29.83 "HgN/A
3:20 AM55 °FCool.7 mph88%29.83 "HgN/A
2:20 AM54 °FCool.6 mph88%29.86 "HgN/A
1:20 AM54 °FCool.6 mph88%29.86 "HgN/A
12:20 AM55 °FCool.5 mph82%29.89 "HgN/A
11:20 PM
Oct 20
55 °FCool.6 mph82%29.89 "HgN/A
10:20 PM57 °FCool.7 mph77%29.92 "HgN/A
9:20 PM57 °FCool.7 mph77%29.92 "HgN/A
8:20 PM57 °FCool.7 mph77%29.92 "HgN/A
7:20 PM59 °FCool.7 mph77%29.92 "HgN/A
6:20 PM59 °FCool.8 mph77%29.92 "HgN/A
5:20 PM59 °FCool.8 mph77%29.92 "HgN/A
4:20 PM61 °FCool.10 mph72%29.95 "HgN/A
3:20 PM61 °FScattered clouds.10 mph72%29.95 "HgN/A
2:20 PM63 °FBroken clouds.12 mph68%29.95 "HgN/A
1:20 PM61 °FScattered clouds.16 mph77%29.98 "HgN/A
12:20 PM61 °FBroken clouds.12 mph77%29.98 "HgN/A
11:20 AM59 °FScattered clouds.9 mph82%29.98 "HgN/A
Weather by CustomWeather, © 2014

See weather overviewHow to use our weather pages